Regional Weather Roundup
Issued by NWS

Home | Current Version | Previous Version | Text Only | Print | Product List | Glossary On
Versions: 1 2 3 4 5 6 7 8 9 10 11 12 13 14 15 16 17 18 19 20 21 22 23 24 25 26 27 28 29 30 31 32 33 34 35 36 37 38 39 40 41 42 43 44 45 46 47 48 49 50
000
ASUS46 KSTO 250315
RWRCA

NORTHERN AND CENTRAL CA REGIONAL WEATHER ROUNDUP
NATIONAL WEATHER SERVICE SACRAMENTO CA
800 PM PDT WED MAY 24 2017

NOTE: FAIR INDICATES FEW OR NO CLOUDS BELOW 12,000 FEET WITH NO
SIGNIFICANT WEATHER AND/OR OBSTRUCTIONS TO VISIBILITY.

CAZ001-003-250400-
NORTHWEST AREA

CITY           SKY/WX    TMP DP  RH WIND       PRES   REMARKS
CRESCENT CITY  CLEAR     52  46  80 N23G36    29.72S HAZE
UKIAH          MOCLDY    67  54  63 S7        29.68R
$$

CAZ006-505>513-250400-
BAY AREA

CITY           SKY/WX    TMP DP  RH WIND       PRES   REMARKS
SANTA ROSA     CLOUDY    54  51  90 SW9       29.74F
SAN RAFAEL     N/A       59  MM  MM MISG
NAPA           PTCLDY    60  51  72 W12       29.73S
CONCORD        MOCLDY    59  50  72 W9        29.71F
OAKLAND CITY   N/A      MM  MM  MM MISG
OAKLAND        MOCLDY    61  51  70 W10       29.75S
SAN FRAN CITY  N/A       55  MM  76 MISG
SAN FRAN ARPT  MOCLDY    59  47  64 S9        29.74S
LIVERMORE      PTCLDY    62  50  64 W14       29.70S
HAYWARD        PTCLDY    62  47  57 W9        29.74S
REDWOOD CITY   N/A       62  MM  59 MISG
MOFFETT ARPT   PTCLDY    63  54  72 NE13      29.73S
SAN JOSE ARPT  MOCLDY    64  52  64 NW9       29.73R
$$
CAZ034-037-514>518-250400-
CENTRAL COAST

CITY           SKY/WX    TMP DP  RH WIND       PRES   REMARKS
WATSONVILLE    MOCLDY    55  53  93 SW7       29.80S
SALINAS        CLOUDY    58  51  78 NW15      29.79S
MONTEREY       CLOUDY    56  50  80 SW10      29.79F
SAN LUIS OBISP CLOUDY    59  51  75 NW9       29.81S
SANTA MARIA    CLOUDY    57  51  80 NW8       29.83S
$$
CAZ015-016-250400-
NORTHERN SACRAMENTO VALLEY

CITY           SKY/WX    TMP DP  RH WIND       PRES   REMARKS
REDDING        PTCLDY    85  55  35 S9        29.52S
RED BLUFF      CLOUDY    84  57  39 S16       29.54F
OROVILLE       PTCLDY    80  54  40 S17       29.59S
$$
CAZ016>018-250400-
SOUTHERN SACRAMENTO VALLEY

CITY           SKY/WX    TMP DP  RH WIND       PRES   REMARKS
AUBURN         CLEAR     72  46  40 S12       29.69S
BEALE AFB      CLEAR     74  56  53 S13       29.59R
LINCOLN        FAIR      70  50  49 S14       29.62R
MARYSVILLE     CLEAR     72  55  55 S16       29.60S
SAC INTL ARPT  MOCLDY    65  53  65 S15       29.61S
MATHER AIRPORT MOCLDY    66  50  55 SW9       29.66R
DOWNTOWN SAC   N/A       65  MM  MM MISG
SAC EXEC ARPT  PTCLDY    63  52  67 SW15G24   29.64F
VACAVILLE      PTCLDY    64  52  64 SW20G25   29.65R
TRAVIS AFB     PTCLDY    59  50  71 W25G31    29.66S
$$
CAZ019>021-250400-
SAN JOAQUIN VALLEY

CITY           SKY/WX    TMP DP  RH WIND       PRES   REMARKS
STOCKTON       PTCLDY    74  52  46 NW12      29.66S
MODESTO        PTCLDY    80  50  34 N12       29.63S
MERCED         PTCLDY    78  41  26 W8        29.63S
LEMOORE        CLOUDY    84  48  28 NW9       29.63F
FRESNO         MOCLDY    84  50  30 W12       29.63S
HANFORD        MOCLDY    85  56  37 NW10      29.63S
PORTERVILLE      N/A     83  33  16 SW6       29.65R
BAKERSFIELD    CLEAR     83  30  14 NW9       29.65S
$$
CAZ011-012-071-250400-
NORTHERN MOUNTAINS

CITY           SKY/WX    TMP DP  RH WIND       PRES   REMARKS
YREKA          CLEAR     63  34  33 N26G37    29.77R
MOUNT SHASTA   CLEAR     65  26  23 NW8       29.73R
ALTURAS        PTCLDY    68  20  16 NW15G26   29.73R
$$
CAZ011-012-071-250400-
SIERRA NEVADA MTNS

CITY           SKY/WX    TMP DP  RH WIND       PRES   REMARKS
BLUE CANYON    CLEAR     60  40  47 S7        29.87F
TRUCKEE        PTCLDY    59  32  36 SW10      29.88S
TAHOE VLY ARPT PTCLDY    60  37  42 S12G21    29.87F
MAMMOTH LAKES  FAIR      61  21  21 W17G35    29.95F
$$



USA.gov is the U.S. government's official web portal to all federal, state and local government web resources and services.